469 visiteurs
Prévisions de votre ville :
Vigilance : 18 départements 3 départements Mise à jour le 21/10/2019 à 16:33 - Voir la carte

Paris Roissy CDG (95380) le 22/10/2019 à 05:00 Choisir station

6.6°C 95 % ESE Rafales 19 km/h
Vit. moyenne 4 kmh/h

Relevés météo quotidiens pour la station de :

UTC
S: Synop
M: Metar
Loc T°C
(°C)
Td
(°C)
HR
(%)
Vis
(km)
Néb
(octa)
Vent
(km/h)
Pression
(mb)
Précipitations
(mm)
Temps
              MOY
10 min
DIR RAF 1h MESURE VAR SUR 3h    
S 00 h 02h 23.5 19.6 79 - 13 37 1012.7 +0.3/3h 0.0/6h - 0.0/3h -
S 01 h 03h 23.5 19.8 80 - 11 35 1012.5 -0.2/3h 0.0/1h -
S 02 h 04h 23.3 20.1 82 - 6 15 1012.3 -0.4/3h 0.0/1h -
S 03 h 05h 23.1 20.1 83 - 11 28 1012.5 -0.2/3h 0.0/3h -
S 04 h 06h 23.0 19.8 82 - 11 26 1012.7 +0.2/3h 0.0/1h -
S 05 h 07h 23.2 20.0 82 - 9 20 1012.8 +0.5/3h 0.0/1h -
S 06 h 08h 24.2 20.3 79 16 3/8 4 9 1013.0 +0.5/3h 0.0/12h - 0.0/3h - 0.0/24h
S 07 h 09h 25.1 20.1 74 - 4 7 1013.1 +0.5/3h 0.0/1h -
S 08 h 10h 24.8 19.8 74 - 7 13 1013.3 +0.6/3h 0.0/1h -
S 09 h 11h 26.1 20.4 71 16 3/8 2 6 1013.3 +0.4/3h 0.0/3h
S 10 h 12h 30.0 20.0 55 - 7 13 1013.2 +0.3/3h 0.0/1h -
S 11 h 13h 30.1 18.8 51 - 19 28 1013.0 -0.1/3h 0.0/1h -
S 12 h 14h 29.8 17.9 49 16 3/8 17 30 1012.9 -0.2/3h 0.0/6h - 0.0/3h
S 13 h 15h 30.5 16.5 43 - 13 24 1012.7 -0.5/3h 0.0/1h -
S 14 h 16h 29.6 15.3 42 - 6 13 1012.7 -0.4/3h 0.0/1h -
S 15 h 17h 30.0 14.9 40 16 4/8 7 19 1012.1 -0.8/3h 0.0/3h
S 16 h 18h 28.0 18.1 55 - 7 17 1012.3 -0.5/3h 0.0/1h -
S 17 h 19h 27.0 21.1 70 - 7 20 1012.2 -0.5/3h 0.0/1h -
S 18 h 20h 25.4 21.5 79 16 4/8 26 33 1012.2 -0.1/3h 0.0/12h - 0.0/3h
S 19 h 21h 24.5 21.2 82 - 7 26 1011.7 -0.7/3h 0.0/1h -
S 20 h 22h 24.5 21.0 81 - 17 44 1011.7 -0.6/3h 0.0/1h -
S 21 h 23h 24.5 21.0 81 - 15 28 1011.8 -0.4/3h 0.0/3h -
S 22 h 00h 24.2 19.9 77 - 15 30 1011.8 0.0/3h 0.0/1h -
S 23 h 01h 24.2 19.5 75 - 37 59 1011.9 +0.1/3h 0.0/1h -
evolution des temperatures
cumul des precipitations
vent moyen et rafales
pression atmospherique

Un tiret (-) signifie que les données ne sont pas disponibles.

Passez la souris sur les pictos temps pour avoir plus de précisions. Passez les flèches sur l'icône de la direction du vent pour voir la direction précise en degrés.

Les données de l'heure en cours sont disponibles à partir de H+15 minutes.


S signifie station Synop, plus complète qu'une station Metar (M). Il y a +1h de différence entre l'heure UTC et l'heure légale en hiver et +2h en été.

Td est la mesure du point de rosée.

HR est l'humidité relative/p>

Vis est la visibilité

Néb est la nébulosité du ciel (couverture nuageuse) exprimée en octas (de 0/8 à 8/8).

Vent moy 10 min donne le vent moyen sur les 10 minutes qui précèdent le relevé.

Vent raf 1h donne la rafale maximale mesurée dans l'heure qui précède le relevé.


Les données les plus anciennes remontent à avril 2014.

Les données présentées sur cette page proviennent des stations météo officielles. Les relevés sont effectués aux normes en vigueur (anémomètre à 10m de haut, thermomètre sous abri normalisé à 2m du sol...)

Météo 60 décline toute responsabilité en cas d'absence de données, d'erreurs, de mauvaise utilisation ou interprétation et n'est pas habilité à fournir des certificats intempéries.